Regional Weather Roundup
Issued by NWS

Home | Current Version | Previous Version | Graphics & Text | Print | Product List | Glossary On
Versions: 1 2 3 4 5 6 7 8 9 10 11 12 13 14 15 16 17 18 19 20 21 22 23 24 25 26 27 28 29 30 31 32 33 34 35 36 37 38 39 40 41 42 43 44 45 46 47 48 49 50
000
ASUS43 KTOP 190508
RWRKS

WEATHER ROUNDUP FOR KANSAS
NATIONAL WEATHER SERVICE GOODLAND KS
1100 PM CST SAT NOV 18 2017

NOTE:  "FAIR" INDICATES FEW OR NO CLOUDS BELOW 12,000 FEET WITH NO
SIGNIFICANT WEATHER AND/OR OBSTRUCTIONS TO VISIBILITY.

KSZ001>006-013>018-027>032-041>047-190600-
NORTHWEST KANSAS

CITY           SKY/WX    TMP DP  RH WIND       PRES   REMARKS
GOODLAND       CLEAR     25  15  66 SW9       30.27S
HAYS           CLEAR     32  22  66 NW8       30.29S
HILL CITY      CLEAR     29  21  72 W9        30.28F
RUSSELL        CLEAR     27  22  81 W6        30.27R
$$

KSZ061>065-074>080-084>089-190600-
SOUTHWEST KANSAS

CITY           SKY/WX    TMP DP  RH WIND       PRES   REMARKS
DODGE CITY     CLEAR     28  16  60 SW7       30.31R
ELKHART        CLOUDY    31  19  59 S10       30.31F WCI  22
GARDEN CITY    CLEAR     26  15  63 W7        30.30S
GREAT BEND     CLEAR     30  23  75 W9        30.29R
LIBERAL        CLEAR     25  14  63 W8        30.33R
PRATT          CLEAR     29  22  74 W8        30.30R
$$

KSZ066>073-081>083-090>101-190600-
SOUTHEAST KANSAS

CITY           SKY/WX    TMP DP  RH WIND       PRES   REMARKS
CHANUTE        CLEAR     39  29  67 NW7       30.24R
COFFEYVILLE    CLEAR     39  30  70 NW6       30.25R
HUTCHINSON     CLEAR     31  23  72 NW6       30.27S
MEDICINE LODGE   N/A     31  22  69 NW3       30.30R
NEWTON         CLEAR     36  24  62 NW6       30.27R
PARSONS        CLEAR     35  29  78 CALM      30.25S
WICHITA INTL   CLEAR     38  25  59 NW6       30.27R
WICHITA JABRA  CLEAR     38  25  59 W8        30.26S
WICHITA MCCONL CLEAR     40  24  51 NW5       30.27R
WINFIELD       CLEAR     37  25  61 CALM      30.29R
$$

KSZ007>012-019>026-033>040-048>060-102>105-190600-
NORTHEAST KANSAS

CITY           SKY/WX    TMP DP  RH WIND       PRES   REMARKS
CONCORDIA      CLEAR     34  25  69 W6        30.24S
EMPORIA        CLEAR     36  26  67 NW3       30.24R
LAWRENCE       CLEAR     33  27  78 W6        30.22R
MANHATTAN      CLEAR     35  26  69 CALM      30.25R
MARYSVILLE     CLEAR     32  28  86 NW6       30.23S
OLATHE IND     CLEAR     35  27  72 NW7       30.21R
OLATHE EXE     CLEAR     38  26  62 N9        30.20R
SALINA         CLEAR     34  25  69 W6        30.27S
TOPEKA BILLARD CLEAR     36  28  73 NW7       30.23R
TOPEKA FORBES  CLEAR     35  27  72 NW8       30.22S
$$




USA.gov is the U.S. government's official web portal to all federal, state and local government web resources and services.